Regional Weather Roundup
Issued by NWS Wakefield, VA

Home | Current Version | Previous Version | Graphics & Text | Print | Product List | Glossary On
Versions: 1 2 3 4 5 6 7 8 9 10 11 12 13 14 15 16 17 18 19 20 21 22 23 24 25 26 27 28 29 30 31 32 33 34 35 36 37 38 39 40 41 42 43 44 45 46 47 48 49 50
000
ASUS41 KAKQ 211910
RWRAKQ

REGIONAL WEATHER ROUNDUP
NATIONAL WEATHER SERVICE WAKEFIELD VA
200 PM EST SUN DEC 21 2014

Note: "fair" indicates few or no clouds below 12,000 feet with no
significant weather and/or obstructions to visibility. * = Denotes
station may not report precipitation (e.g., rain,snow,etc.),
thunder or fog.

VAZ042-051-052>054-056-212000-
NORTHERN VIRGINIA

CITY           SKY/WX    TMP DP  RH WIND       PRES   REMARKS
WASH NATIONAL  PTSUNNY   44  25  47 N8        30.31F
DULLES         PTSUNNY   40  23  50 VRB5      30.29F
FORT BELVOIR   SUNNY     44  24  46 VRB5      30.30F
QUANTICO       SUNNY     42  27  55 E8        30.31F
FREDERICKSBRG* SUNNY     44  27  51 CALM      30.29F
STAFFORD*      SUNNY     44  25  48 E3        30.33F
WARRENTON      SUNNY     44  32  63 CALM      30.28F
CULPEPER*      SUNNY     45  27  49 CALM      30.29F
MANASSAS*      NOT AVBL
LEESBURG*      CLOUDY    39  30  70 N6        30.30F
WINCHESTER     SUNNY     41  21  45 CALM      30.26F
FRONT ROYAL*   CLEAR     37  27  65 N3        30.25F
LURAY*         CLEAR     45  30  57 CALM      30.24F
$$

VAZ048-049-060>072-079>083-212000-
CENTRAL AND SOUTH CENTRAL VIRGINIA

CITY           SKY/WX    TMP DP  RH WIND       PRES   REMARKS
RICHMOND       SUNNY     45  25  45 CALM      30.28F
CHESTERFIELD*  CLEAR     45  21  39 E3        30.29F
PETERSBURG*    SUNNY     45  27  48 NE3       30.28F
HANOVER        SUNNY     44  26  49 NW3       30.30F
TAPPAHANNOCK*  MOSUNNY   44  22  41 CALM      30.30F
QUINTON*       CLEAR     43  28  55 NE6       30.29F
CHARLOTTSVILLE SUNNY     43  27  53 CALM      30.26F
GORDONSVILLE*  CLEAR     42  27  55 CALM      30.27F
ORANGE*        SUNNY     43  28  56 CALM      30.29F
LOUISA*        SUNNY     43  28  56 N3        30.26F
BUMPASS*       PTCLDY    41  26  56 E3        30.28F
FARMVILLE*     SUNNY     52  29  41 CALM      30.25F
CREWE*         PTCLDY    44  27  51 N3        30.26F
FORT PICKETT*  PTCLDY    46  29  52 NE5       30.25F
CHASE CITY*    CLOUDY    47  33  58 CALM      30.25F
CLARKSVILLE*   PTCLDY    45  32  61 E3        30.24F
SOUTH HILL*    MOSUNNY   44  29  57 NE5       30.31F
LAWRENCEVILLE* PTCLDY    45  30  57 E5        30.26F
EMPORIA*       MOSUNNY   43  28  56 NE7       30.29F
$$

VAZ088>098-212000-
SOUTHEAST VIRGINIA

CITY           SKY/WX    TMP DP  RH WIND       PRES   REMARKS
NORFOLK        PTSUNNY   43  29  57 NE7       30.30F
VIRGINIA BEACH MOSUNNY   45  28  51 NE7       30.29F
NORFOLK NAVAL  PTSUNNY   46  32  58 N9        30.31F
WEST POINT*    SUNNY     47  24  41 CALM      30.31F
SALUDA*        FAIR      41  27  56 N3        30.29F
NEWPORT NEWS   CLOUDY    46  29  51 NE7       30.29F
LANGLEY AFB    NOT AVBL
FORT EUSTIS    CLOUDY    45  27  50 E5        30.27F
WILLIAMSBURG*  SUNNY     48  30  49 CALM      30.30F
HR EXEC AP*    MOCLDY    45  30  57 E5        30.31F
FRANKLIN*      MOSUNNY   45  28  53 E6        30.28F
WAKEFIELD      PTSUNNY   46  28  49 VRB5      30.29F
$$

VAZ020-022-025-037-045-212000-
WEST CENTRAL AND SOUTHWEST VIRGINIA

CITY           SKY/WX    TMP DP  RH WIND       PRES   REMARKS
STAUNTON*      SUNNY     42  28  56 NE3       30.24F
WAYNESBORO*    CLEAR     41  28  57 E3        30.21F
HOT SPRINGS VA MOSUNNY   37  26  63 E5        30.10F
LYNCHBURG      SUNNY     46  30  53 VRB5      30.23F
DANVILLE       CLOUDY    46  33  60 E6        30.24F
SOUTH BOSTON*  CLOUDY    45  31  56 CALM      30.25F
MARTINSVILLE   CLOUDY    46  34  62 E3        30.24F
ROANOKE        PTSUNNY   44  29  55 CALM      30.22F
BLACKSBURG     PTSUNNY   43  29  59 W3        30.20F
DUBLIN*        CLOUDY    44  34  67 CALM      30.18F
MARION*        CLOUDY    46  36  68 E5        30.17S
HILLSVILLE*    CLOUDY    41  34  75 S5        30.15F
RICHLANDS*     PTCLDY    44  30  59 CALM      30.13F
WISE*          SUNNY     46  30  53 CALM      30.13F
ABINGDON*      SUNNY     49  34  54 CALM      30.14F
$$

MDZ021>025-VAZ099-100-212000-
SOUTHERN MARYLAND AND THE DELMARVA PENINSULA

CITY           SKY/WX    TMP DP  RH WIND       PRES   REMARKS
PATUXENT RIVER MOSUNNY   42  23  46 N8        30.30F
BAY BRIDGE APT   N/A     37  23  56 NW3       30.31F
LEONARDTOWN    SUNNY     41  23  48 N3        30.31F
DOVER          SUNNY     41  25  51 W7        30.28F
GEORGETOWN     SUNNY     42  24  49 NW5       30.30F
EASTON         MOSUNNY   41  27  56 NW3       30.34F
CAMBRIDGE      SUNNY     41  27  56 NW5       30.30F
SALISBURY      SUNNY     43  25  49 NW8       30.30F
OCEAN CITY     SUNNY     42  25  50 NW6       30.29F
WALLOPS ISLAND MOSUNNY   43  27  53 VRB3      30.30F
ACCOMACK*      MOSUNNY   41  27  56 NW7       30.30F
$$

NCZ012>017-030>032-212000-
NORTH CENTRAL AND EASTERN NORTH CAROLINA

CITY           SKY/WX    TMP DP  RH WIND       PRES   REMARKS
ROANOKE RAPIDS CLEAR     45  30  57 CALM      30.26F
RALEIGH        MOSUNNY   49  34  56 E6        30.24F
ELIZABETH CITY SUNNY     51  34  52 NE10      30.28F
AHOSKIE*       SUNNY     45  29  52 E6        30.28F
EDENTON*       SUNNY     49  33  55 NE8       30.27F
CURRITUCK*     SUNNY     45  32  59 NE8       30.29F
KILL DEVIL HLS MOSUNNY   47  37  68 NE8       30.25F
MANTEO         PTSUNNY   47  37  68 NE10      30.26F
CAPE HATTERAS  CLOUDY    47  40  76 NE10G17   30.24F
TARBORO*       CLEAR     50  32  50 E8        30.27F
GOLDSBORO      NOT AVBL
WASHINGTON     CLOUDY    47  32  56 NE8       30.25F
GREENVILLE     SUNNY     46  32  57 NE8       30.26F
NEW BERN       CLOUDY    49  36  61 NE9       30.25F
WILMINGTON     CLOUDY    49  37  63 NE12      30.21F
$$

VAZ048-212000-
ELSEWHERE

CITY           SKY/WX    TMP DP  RH WIND       PRES   REMARKS
HARRISBURG PA  PTSUNNY   34  21  59 NE6       30.30F
BALTIMORE      MOSUNNY   40  23  50 SW7       30.29F
ANNAPOLIS      MOSUNNY   39  24  55 NW6       30.30F
ANDREWS AFB    MOSUNNY   41  24  50 NW6       30.28F
PHILADELPHIA   MOSUNNY   39  22  50 N9        30.31S
HENDERSON NC   SUNNY     46  31  56 CALM      30.25F
GREENSBORO     CLOUDY    46  34  62 CALM      30.21F
ROCKY MOUNT    SUNNY     49  32  52 VRB3      30.26F
$$

VAZ100-212000-
MARINE

STATION/POSITION TIME  TEMP    WIND        PRES    WAVE   SWELL
                       AIR SEA DIR/SP/G            HT/PER HT/PER
                 (UTC) (F)     (DEG/KT/KT) (MB)    (FT/S) (FT/S)
CAPE MAY NJ      1900   37 43  310/  8/ 11 1025.6S
LEWES DE         1900   37 42  360/  6/  8 1025.9F
15NM E FENWICK I 1900   38 45              1025.6F   2/10
OCEAN-CITY-INLET 1900   40 44   30/  4/  6 1025.6S
WACHAPREAGUE VA  1900   42 40   10/  4/  7 1025.8F
THOMAS POINT MD  1900   38 41   10/  6/  7 1027.1F
GOOSES REEF MD   1900   38     VRB  6/  6  1025.4F
COVE POINT MD    1900   36      40/  6/  7 1026.2S
SOLOMONS ISLAND  1900      43                N/A
BISHOPS HEAD MD  1900   38 38  290/  5/  6 1025.8S
POTOMAC MD       1900   39     130/  4/  4 1025.6F
CAMBRIDGE MD     1900   38 40  310/  5/  8 1026.2F
LEWISETTA VA     1900   38 41  100/  4/  4 1025.8F
RAPPAHANNOCK LGT 1900          360/  7/  8 1026.5F
STINGRAY PT      1900   40      50/  6/  8 1026.4F
YORK RVR RNG VA  1900   40      70/  7/  8 1025.3F
YORKTOWN VA      1900   43 45   70/  3/  5 1025.8S
JAMESTOWN VA     1900   43     210/  2/  6   N/A
DOMINION TERM VA 1900   42      80/  6/  8 1025.9F
KIPTOPEKE VA     1900      48  360/  6/  9   N/A
CHES BAY BRIDGE  1900   40 46  360/  8/  9 1025.6S
CAPE HENRY VA    1900   40      30/  7/  9 1024.6F
CHESAPEAKE LGHT  1800   40      10/ 12/ 14 1026.4F
WILLOUBY STN VA  1900   40      40/  8/  9 1026.3F
S CRANEY ISL VA  1900           40/  6/  8 1025.9S
CAPE HENRY BUOY  1900      49                N/A     2/10
1ST LANDING BUOY 1900   41      20/  6/  8 1025.7F
CAPE CHARLES BUO 1900      47                N/A     2/10   2/10
64NM E OF VA BCH 1900   45 54   10/ 12/ 14 1025.0S   2/ 4   2/11
DUCK PIER NC     1900   44 46   30/ 14/ 15 1024.2F
44100 DUCK FRF   1900      51                N/A     2/ 3
44056 DUCK FRF   1900      47                N/A     2/ 4
OREGON INLET NC  1900   47 47   20/ 12/ 15 1024.4F
HATTERAS NC      1900   46 50   20/ 14/ 19 1024.4R
DIAMOND SHLS NC  1900   53                 1023.5F   3/ 4
CAPE LOOKOUT NC  1800   45      20/ 14/ 18 1023.7F
$$


USA.gov is the U.S. government's official web portal to all federal, state and local government web resources and services.